User: anonymous   Login
Location: Unspecified
(0.0000°N, 0.0000°E)
Time: 08:15:16
(UTC+00:00)
Language:

YUBELEINY 2 - Orbit

View from above orbital plane
View from above orbital plane
View from above satellite
View from above satellite

Ground track
Ground track

The orbit data is extracted from the following two-line orbital elements,

1 38735U 12041C   18347.74768176 -.00000001  00000-0 -76583-4 0  9999
2 38735  82.4756 344.6593 0016095 285.0547  74.8749 12.42577110289330
Epoch (UTC): 13 December 2018 17:56:39
Eccentricity: 0.0016095
inclination: 82.4756°
perigee height: 1483 km
apogee height: 1508 km
right ascension of ascending node: 344.6593°
argument of perigee: 285.0547°
revolutions per day: 12.42577110
mean anomaly at epoch: 74.8749°
orbit number at epoch: 28933

The dashed part of the orbit path shows where the satellite is in the earth's shadow,  

DLR